GEFSSE_500_meanwind_252.txt.gz
Wind_Speed
8 7 8 9 9 10 11 10 10 11 11 11 11 11 11 11 11 10 11 10 11 10 10 10 10 10 9 9 8 8 8 8 8 8 8 7 6 5 4 4 4 4 3
8 8 8 9 11 12 11 11 11 11 12 12 12 11 11 11 10 10 10 11 11 10 9 10 10 10 9 9 9 8 8 8 8 8 8 7 6 5 5 4 4 3 3
9 10 10 10 10 11 11 11 11 11 12 12 12 11 11 11 11 11 12 11 11 10 10 9 10 10 9 9 9 9 8 8 8 8 7 6 5 5 4 3 3 3 3
10 11 11 11 11 11 11 11 12 13 13 12 12 12 11 11 11 11 11 12 12 11 10 10 10 10 10 9 9 8 8 8 8 7 7 6 5 4 4 3 2 2 2
11 11 11 10 11 11 11 11 13 13 13 12 12 12 11 11 11 11 11 11 11 11 10 11 10 10 10 9 9 8 8 8 8 7 6 6 5 4 4 3 2 2 2
11 11 11 10 11 12 12 11 12 12 12 12 12 11 11 10 10 10 10 10 10 10 10 10 10 10 9 9 10 9 8 7 7 6 5 5 4 4 3 2 2 2 2
11 11 11 11 11 12 12 12 12 12 12 12 12 11 11 11 10 10 10 10 10 10 9 9 9 9 9 8 9 8 7 6 6 6 5 4 3 3 2 2 2 2 2
11 11 12 12 12 12 13 12 12 12 12 12 12 12 11 10 10 10 11 10 10 9 9 8 8 8 8 7 7 7 6 6 5 5 4 3 2 2 2 2 2 2 1
11 12 12 12 12 13 13 13 13 12 12 13 12 11 10 10 10 10 11 11 10 9 9 9 8 7 7 6 6 6 5 4 4 4 3 2 2 2 3 2 2 2 3
11 12 13 13 13 13 12 12 12 12 12 12 12 10 9 9 10 10 11 10 10 8 8 8 7 6 6 6 5 5 5 4 3 3 2 2 2 3 3 3 3 3 3
11 12 12 13 13 12 12 12 12 12 11 11 11 11 10 10 11 11 10 10 9 8 7 6 6 5 5 5 4 4 4 3 2 2 2 2 3 3 4 3 3 3 3
10 11 12 12 12 12 12 11 11 11 11 11 11 11 11 12 11 11 10 9 8 7 6 5 5 4 3 3 3 3 3 3 3 3 3 3 3 4 4 4 4 4 4
10 10 11 11 11 12 12 11 11 11 11 11 10 10 11 11 11 10 9 8 7 7 6 5 4 3 2 3 3 3 3 3 4 4 4 4 5 5 5 5 5 5 5
10 10 10 10 10 11 11 11 11 10 10 10 10 10 10 10 9 8 7 7 6 5 4 4 3 2 1 2 2 2 3 3 4 4 5 5 5 5 6 6 6 6 7
10 9 9 9 9 10 10 10 10 9 9 9 9 9 9 8 7 6 5 5 5 4 3 2 1 0 0 1 2 2 3 3 4 5 5 5 6 6 6 6 7 8 8
10 9 9 9 9 9 9 9 8 8 8 8 8 7 6 6 6 5 4 4 3 2 2 2 1 1 1 1 2 3 4 4 5 6 6 6 6 7 7 7 8 10 10
10 9 9 9 9 8 8 8 8 7 7 7 7 6 6 5 4 4 3 2 2 2 2 1 1 1 1 2 2 3 4 5 6 7 7 7 7 8 8 9 9 10 10
10 9 8 8 8 8 7 7 7 7 7 6 6 6 5 4 4 3 3 3 2 2 1 1 1 1 2 2 3 3 4 5 6 7 7 7 7 8 8 9 9 10 11
9 9 8 8 8 8 7 7 6 6 6 6 5 5 5 4 4 3 3 3 2 2 2 1 2 2 2 2 2 3 4 5 7 7 8 8 8 9 8 8 10 10 10
8 8 8 7 7 8 7 7 6 6 5 5 5 5 4 4 4 3 3 3 3 2 2 2 2 2 2 3 3 4 5 6 7 8 8 9 9 9 9 10 10 11 11
8 8 7 7 7 7 7 7 7 6 6 6 6 5 5 5 4 4 4 4 3 2 2 2 3 3 4 4 5 6 6 7 8 8 9 9 9 10 11 11 11 12 12
7 7 7 6 6 6 6 6 6 7 6 6 7 6 5 5 5 5 5 5 4 3 3 4 4 5 5 6 6 7 7 8 8 9 9 10 10 11 11 11 12 13 13
7 6 6 5 5 5 5 5 5 5 5 6 6 6 5 5 5 5 5 5 5 4 4 5 5 6 7 8 8 8 9 9 9 10 10 10 11 11 11 12 13 13 13
6 6 6 5 5 5 5 5 4 4 4 5 5 5 5 5 5 6 6 6 6 6 5 6 6 7 7 8 9 10 10 10 10 11 11 11 11 11 11 12 12 12 12
6 6 5 5 4 4 5 4 4 4 4 4 4 4 4 5 4 5 6 6 6 6 7 7 7 7 8 9 9 10 10 10 10 10 11 11 12 11 12 12 12 12 12
5 5 5 5 4 4 4 4 4 3 3 4 4 4 4 4 4 5 6 6 6 6 7 7 7 8 8 9 9 10 10 10 10 10 11 11 12 12 12 12 12 12 13

GEFSSE_500_meanwind_258.txt.gz
Wind_Speed
4 5 5 5 5 5 5 5 6 7 7 7 7 8 8 8 8 8 9 10 10 10 9 9 9 8 8 8 8 7 7 7 7 6 6 6 6 6 5 4 4 4 4
4 5 5 6 6 5 5 5 5 6 7 7 7 8 8 9 8 9 9 10 10 9 8 8 8 8 8 8 7 7 7 7 7 7 6 5 6 5 5 4 4 5 4
4 5 6 5 6 6 5 5 5 6 7 8 8 8 9 8 8 8 9 10 9 8 8 8 7 8 8 7 8 8 8 8 7 6 6 5 5 5 5 4 4 4 3
4 5 5 5 6 6 6 6 6 7 7 8 9 8 9 8 8 8 9 10 9 7 6 6 7 8 8 8 8 8 7 7 6 6 5 4 4 4 4 4 3 3 2
5 5 6 6 6 7 7 7 7 7 7 8 8 9 8 9 8 9 10 10 8 7 7 7 7 8 9 8 8 7 6 6 5 5 4 4 4 3 3 3 2 2 2
8 8 8 8 9 9 8 8 8 7 7 8 8 8 7 7 8 10 10 9 8 8 8 7 8 9 9 8 7 7 6 5 5 4 4 3 3 3 3 2 2 2 1
10 10 10 9 9 10 9 9 9 8 8 8 8 8 8 8 9 9 9 9 8 9 8 8 8 9 8 7 7 7 6 5 4 3 3 2 2 2 1 1 1 1 1
11 11 10 10 9 10 10 9 8 9 8 7 7 7 7 8 8 8 7 8 7 7 8 7 7 7 6 6 5 5 5 4 3 2 2 1 1 1 1 1 1 1 2
11 11 11 10 10 10 10 9 9 8 8 7 6 6 7 8 8 8 7 7 6 6 7 7 7 6 6 5 4 4 4 3 2 2 2 1 1 2 1 1 2 2 2
11 11 11 10 10 9 9 9 9 9 8 8 7 7 7 7 7 7 7 6 5 5 5 5 5 5 4 3 3 3 3 2 1 1 1 1 2 2 2 2 3 3 3
10 10 10 9 9 9 9 9 9 9 8 8 8 7 7 7 7 7 7 6 5 5 4 3 3 3 3 3 2 2 2 1 1 1 1 2 2 2 3 4 4 5 4
10 10 10 9 9 9 9 8 8 8 8 8 7 7 7 7 7 7 6 5 4 4 4 3 2 2 2 2 1 1 1 1 2 2 2 3 4 4 5 5 6 6 5
9 9 9 9 9 9 8 8 8 8 8 7 7 8 7 7 7 7 6 5 5 4 4 3 3 2 1 1 1 1 2 2 2 3 4 4 5 5 5 5 6 6 6
9 9 8 9 9 9 8 8 8 7 7 8 7 7 8 8 7 6 5 4 4 3 3 4 3 3 2 1 1 1 2 3 3 3 4 4 5 5 5 6 6 7 7
9 9 8 8 8 8 8 8 8 7 7 7 7 7 7 6 6 4 3 3 3 3 3 3 2 2 2 2 2 2 2 3 3 4 5 5 5 5 6 7 8 8 8
9 8 8 8 7 7 7 7 7 7 7 7 7 6 6 5 4 4 4 4 4 4 3 3 3 3 3 3 3 2 3 3 4 4 6 6 6 6 7 7 8 8 9
9 8 7 7 7 7 6 7 7 7 6 6 6 6 6 5 5 4 4 4 4 4 4 3 3 3 3 3 3 3 4 4 5 6 6 6 7 7 8 8 8 8 9
9 8 7 7 7 7 6 6 6 7 6 6 5 5 5 5 4 4 4 4 4 4 4 4 4 4 4 3 4 4 5 6 6 7 7 8 8 8 8 9 9 9 10
10 9 8 7 7 6 6 5 5 6 6 5 5 5 4 4 4 4 4 4 4 4 4 4 4 5 4 4 5 5 6 7 7 8 8 8 8 9 9 9 10 10 10
10 9 8 7 7 7 6 5 5 5 5 6 6 5 5 5 5 5 5 5 5 5 5 5 5 5 5 5 6 7 7 8 8 8 9 9 8 9 9 10 11 10 10
9 8 8 8 7 7 6 5 5 6 6 6 6 6 6 6 6 6 5 5 6 5 5 5 5 5 6 6 7 7 7 8 8 9 9 9 9 9 9 10 11 11 11
9 9 8 8 7 6 6 6 6 6 5 5 6 6 6 7 7 6 6 6 7 7 7 6 6 6 7 7 7 8 8 9 9 9 9 10 10 10 11 11 12 11 11
8 8 8 8 8 7 6 6 6 6 6 6 6 6 6 7 7 7 6 6 7 7 7 7 7 7 7 8 8 8 9 9 10 10 10 11 11 12 12 12 11 11 11
7 7 8 8 8 7 7 7 6 6 6 6 6 6 6 6 6 6 6 7 7 7 8 8 7 7 8 9 9 9 10 11 12 12 12 12 12 12 12 12 12 12 12
7 7 7 7 7 7 7 7 7 6 6 6 6 6 6 5 6 6 6 7 7 8 8 9 8 8 8 9 10 11 12 12 13 12 12 12 12 12 12 12 12 13 13
7 7 7 7 7 6 6 7 7 6 6 6 6 6 6 6 6 6 7 7 7 8 8 9 10 10 10 11 11 12 13 13 14 14 13 13 13 13 13 13 13 14 14

GEFSSE_500_meanwind_264.txt.gz
Wind_Speed
6 6 6 6 6 6 7 7 7 7 7 7 7 7 8 9 10 10 10 10 9 9 10 10 10 9 9 8 8 8 8 8 8 7 7 7 6 6 5 4 4 4 3
7 7 7 6 6 6 6 7 7 7 7 7 8 8 8 9 10 9 9 9 9 9 9 10 9 9 9 8 8 8 8 7 7 7 6 6 6 5 4 4 4 4 3
7 7 7 6 6 6 6 6 7 7 7 6 7 7 8 9 9 10 10 10 9 9 9 9 8 8 8 8 8 7 7 7 7 6 6 6 6 4 4 4 4 4 3
7 7 7 7 7 7 7 7 7 7 7 7 7 7 8 8 9 9 10 10 9 9 8 8 8 8 8 8 8 7 7 6 6 6 5 5 5 5 4 4 3 3 2
8 8 8 7 7 7 8 8 8 7 7 7 7 7 8 8 9 9 10 9 9 8 8 8 7 8 8 8 7 7 7 6 5 5 5 5 4 4 4 3 3 2 1
10 9 8 8 9 9 9 9 8 7 7 7 8 8 8 9 9 9 9 9 9 8 8 7 7 7 8 8 7 7 6 5 5 4 4 4 4 3 3 3 3 3 1
11 11 9 10 10 10 10 9 8 8 8 8 8 8 9 9 9 9 9 8 7 7 7 7 7 7 8 8 7 6 6 5 4 4 3 3 3 3 3 3 3 2 2
12 11 11 10 10 10 9 8 7 8 7 8 8 8 8 9 9 9 8 8 7 6 6 7 6 7 7 7 7 6 5 4 4 4 3 3 3 3 3 3 3 2 3
12 12 12 12 11 11 10 8 7 7 7 7 8 8 9 8 8 8 9 8 7 6 6 6 7 7 7 6 5 5 5 4 4 3 3 3 3 3 3 3 3 4 4
12 12 13 12 12 11 10 8 7 7 8 8 8 8 9 8 8 8 8 7 7 6 6 5 5 5 5 4 4 4 4 3 3 3 3 3 3 3 3 4 4 4 4
12 12 12 12 12 11 11 10 10 9 9 9 9 9 9 8 8 8 7 6 5 5 5 4 4 4 3 3 3 3 2 2 2 3 3 3 3 3 4 4 5 5 5
12 12 12 12 11 12 11 11 11 11 11 10 10 10 9 8 8 7 6 6 5 4 4 4 3 3 3 2 2 2 1 2 2 3 3 4 4 4 4 5 5 6 6
12 12 12 12 11 11 11 11 12 11 11 11 11 10 9 9 8 7 6 6 5 5 4 4 3 3 2 2 2 2 2 2 2 3 4 4 4 4 4 5 5 6 6
12 12 12 12 11 11 11 11 11 11 10 10 10 9 8 8 8 7 6 5 5 5 4 3 2 2 2 1 2 2 2 3 3 3 3 3 3 4 5 5 6 6 7
12 12 12 12 11 11 10 10 11 11 10 10 9 8 8 7 7 6 6 5 5 4 4 3 2 1 1 0 0 2 3 3 3 3 3 3 3 4 5 6 7 7 6
13 12 11 11 11 10 10 10 10 9 9 8 8 7 7 6 6 6 5 5 5 4 4 4 3 2 1 1 0 1 2 3 3 3 4 5 5 6 6 6 7 7 7
12 11 11 10 10 10 9 9 9 9 8 8 7 6 6 6 6 6 5 5 5 5 4 3 3 3 2 1 1 1 1 2 2 3 4 4 5 6 6 6 7 7 7
12 11 11 9 10 10 9 8 8 8 7 7 7 6 6 6 6 6 5 5 4 4 3 2 2 2 2 2 2 2 2 3 3 3 4 4 4 5 6 7 7 7 8
12 12 11 10 10 10 9 8 7 7 6 6 6 6 6 6 6 6 6 5 5 4 4 3 3 3 3 3 3 3 3 3 4 5 5 5 5 6 7 7 8 8 9
11 11 11 11 11 10 9 8 7 7 7 7 7 6 7 6 6 6 5 6 5 5 5 5 4 4 4 4 4 4 4 4 4 5 6 6 6 7 8 9 9 10 10
10 10 9 10 10 10 10 9 8 8 7 7 7 7 6 6 6 6 6 6 6 6 6 5 5 5 5 5 5 5 4 4 5 5 6 7 7 8 8 9 10 10 11
10 9 9 9 9 9 10 9 8 8 8 8 7 7 6 6 6 6 6 6 6 7 7 6 6 5 5 5 5 5 5 5 5 6 7 7 7 7 8 9 9 10 10
9 8 8 8 8 8 9 9 9 8 8 8 8 7 7 7 7 7 6 6 6 7 7 6 6 5 5 5 5 6 6 7 7 6 7 7 7 8 9 9 10 10 11
8 7 7 7 7 7 7 8 8 8 8 8 8 7 7 7 7 7 6 6 6 6 6 6 6 6 6 6 6 6 7 7 8 7 8 8 8 9 10 10 10 11 12
7 7 7 7 6 7 7 7 7 7 8 8 7 7 7 7 6 6 6 6 6 6 6 6 7 7 7 7 7 7 8 8 9 9 9 9 9 10 10 11 11 11 12
6 7 7 6 6 6 7 7 7 7 7 7 6 6 6 7 6 6 6 7 7 6 6 7 8 8 8 8 8 8 9 9 9 10 9 10 10 10 11 11 12 11 11

GEFSSE_500_meanwind_270.txt.gz
Wind_Speed
5 5 5 6 6 5 6 8 8 8 9 8 8 9 9 8 8 8 7 7 7 7 7 7 7 8 7 6 6 5 5 5 6 6 6 4 4 4 3 3 2 2 2
6 5 6 7 7 7 7 8 9 9 8 8 8 8 8 7 8 7 7 7 7 7 7 7 7 7 7 7 6 5 5 5 5 5 5 4 3 3 3 2 2 2 2
7 6 7 8 8 8 8 8 9 9 9 9 9 8 7 7 7 7 7 7 7 7 7 7 7 7 6 6 6 5 5 4 4 4 3 3 3 2 2 2 1 2 1
7 7 7 8 8 8 9 9 9 9 9 8 8 8 8 8 8 7 6 6 7 7 7 7 7 6 6 5 5 5 5 4 4 3 3 3 2 2 2 1 1 1 1
8 7 8 8 9 9 9 9 9 9 8 7 7 7 8 8 8 8 7 6 6 6 6 6 6 6 5 5 5 5 4 4 3 3 3 3 2 2 1 1 0 0 1
8 8 9 9 9 9 9 9 8 8 8 7 7 8 9 8 8 8 7 7 6 6 6 6 6 5 5 4 4 4 4 3 2 2 3 3 2 1 2 1 1 2 2
10 10 10 10 9 9 9 9 8 8 7 7 7 7 7 8 8 8 7 7 6 6 6 5 5 4 5 5 4 3 3 3 2 2 3 3 2 2 2 2 2 3 3
11 11 11 10 10 10 10 10 9 8 8 8 8 7 8 7 7 7 6 6 6 6 5 5 3 3 4 5 4 3 3 3 3 2 3 3 3 3 3 3 4 4 4
10 11 11 11 12 11 11 10 9 8 8 8 8 8 8 7 7 7 6 5 5 5 4 4 2 2 4 5 5 4 3 3 3 3 3 3 3 4 4 5 5 5 5
10 11 11 12 12 12 11 11 10 9 9 9 9 8 8 8 7 6 5 4 4 4 3 2 2 2 3 4 4 4 4 3 3 4 4 4 4 5 5 6 5 6 6
11 11 11 12 12 12 12 11 11 10 10 9 9 8 8 8 7 6 5 4 3 2 2 1 1 2 3 3 3 3 3 3 3 4 4 4 5 5 6 7 7 7 6
12 12 12 12 12 13 12 12 12 11 10 10 10 9 8 8 6 6 5 5 4 3 2 0 1 1 2 2 2 2 2 2 2 3 4 5 5 5 6 7 7 7 7
13 12 13 12 13 13 12 12 12 12 11 11 10 10 8 7 6 6 5 5 4 3 2 1 1 1 2 2 2 2 2 2 3 3 4 5 5 7 6 6 7 7 7
13 13 13 13 12 13 13 12 12 11 11 10 9 8 7 7 6 5 5 4 4 3 3 2 2 1 0 1 1 2 3 3 4 4 5 5 6 6 6 7 7 6 7
13 13 12 12 12 12 11 11 11 10 10 9 8 8 7 6 5 5 5 4 3 3 2 2 2 2 1 1 1 2 3 4 4 5 5 6 6 6 7 8 7 8 9
13 12 12 11 10 10 10 10 10 10 9 9 8 7 6 6 5 5 4 3 3 3 3 3 2 2 2 2 2 3 3 3 4 4 5 6 7 7 7 8 8 10 10
13 13 12 10 10 10 9 9 9 9 9 8 7 6 5 5 5 5 4 3 3 3 3 3 3 2 2 2 3 3 3 3 3 4 5 5 6 7 7 9 9 10 10
12 12 11 10 9 9 9 8 8 8 8 7 6 5 5 5 5 5 5 5 4 4 4 4 3 3 3 3 3 3 3 4 4 4 5 6 6 7 8 8 9 10 10
11 11 10 10 9 9 8 7 7 7 7 6 5 5 5 5 6 5 5 5 5 4 4 4 4 4 4 3 3 3 3 4 4 5 6 6 7 8 9 9 10 10 10
10 10 9 9 8 8 8 7 7 6 6 6 6 6 6 6 6 6 5 5 5 5 4 4 4 4 4 4 4 4 4 4 5 5 6 7 7 8 9 9 9 9 10
10 9 8 8 8 8 7 7 6 6 6 6 5 6 6 6 6 6 6 5 5 5 5 5 5 4 4 4 4 5 5 6 6 6 6 7 7 8 9 9 9 9 10
9 9 8 8 9 8 8 7 7 6 6 6 6 5 5 6 6 6 6 5 5 5 5 5 6 5 4 4 5 5 5 6 7 7 7 7 8 8 9 9 9 10 11
7 8 8 8 8 8 8 7 7 6 6 6 6 6 5 6 6 5 5 5 5 5 5 5 6 6 4 4 5 6 6 6 7 8 8 8 9 9 9 10 10 11 11
6 6 7 7 7 7 7 7 7 7 6 6 6 6 5 5 5 5 5 5 5 5 6 6 6 6 6 5 5 6 7 8 8 8 9 9 10 10 10 11 11 12 12
4 5 5 6 6 5 6 6 5 5 5 6 6 5 5 5 4 5 5 5 5 5 5 5 6 7 6 6 6 7 8 9 8 9 9 10 11 11 11 11 12 12 12
4 4 4 4 5 5 5 4 4 4 4 4 4 4 4 4 4 4 5 5 5 5 5 6 6 7 7 7 7 8 8 9 9 10 10 11 11 11 11 12 12 12 13

GEFSSE_500_meanwind_276.txt.gz
Wind_Speed
7 7 7 6 7 8 8 9 10 9 10 10 10 9 9 10 10 11 11 10 9 8 8 8 7 7 6 6 6 6 6 5 5 5 5 5 4 4 3 3 2 1 1
7 7 7 7 7 8 8 9 10 10 10 10 10 9 9 10 10 10 9 10 9 8 8 8 7 6 5 5 5 6 6 6 5 5 4 4 4 3 3 2 2 2 1
8 8 7 7 7 8 9 9 10 10 10 10 10 9 9 10 10 9 9 9 9 8 8 8 8 6 5 5 5 5 4 5 4 4 4 4 4 3 3 2 2 2 2
8 8 7 7 8 9 9 9 10 10 10 10 10 10 10 10 10 9 9 9 8 8 8 8 8 7 6 5 4 4 4 4 4 3 3 4 3 3 3 2 2 3 3
8 9 8 8 9 10 10 10 9 9 10 10 10 10 10 10 9 8 8 8 8 7 7 8 7 6 5 5 4 3 3 4 4 3 3 3 3 3 3 2 2 2 3
8 9 9 9 10 10 10 9 9 10 9 10 10 10 10 10 9 9 8 8 7 7 7 7 6 6 5 4 4 3 3 3 3 3 3 3 2 3 3 3 2 3 3
9 8 9 9 9 9 10 9 10 9 9 9 10 10 10 10 9 9 9 8 7 6 5 5 5 5 5 4 4 4 3 2 3 3 2 3 2 3 4 3 4 4 4
10 9 9 9 9 9 9 9 10 10 9 9 10 9 10 9 9 9 8 7 7 6 5 4 4 4 4 3 3 3 2 2 2 2 3 3 3 4 4 4 4 5 5
10 9 9 9 9 9 9 10 10 10 10 9 9 9 8 8 9 8 8 7 7 6 5 4 4 4 3 3 3 3 3 3 3 3 3 3 4 4 4 5 5 5 6
10 10 10 10 10 10 9 10 10 10 10 10 9 8 8 8 8 7 7 6 6 6 5 4 4 3 4 4 4 4 4 4 4 4 4 4 4 5 5 6 6 5 6
11 11 11 11 11 11 10 11 11 11 10 10 9 9 8 8 7 6 5 5 5 4 4 3 3 2 2 4 5 5 4 4 4 4 4 4 4 5 5 6 6 6 6
11 11 12 11 11 11 11 11 11 11 10 9 9 9 8 8 7 5 4 4 4 4 2 1 1 1 1 2 4 4 4 4 4 4 5 5 5 5 5 6 6 7 7
12 12 12 12 12 12 11 11 11 10 10 9 8 8 7 7 6 6 5 4 3 3 2 1 1 1 2 3 3 3 3 3 3 4 5 5 5 5 6 7 7 7 7
12 11 11 11 11 11 11 11 11 10 10 9 8 8 6 6 6 5 5 4 3 2 1 2 2 2 2 2 2 2 2 3 3 3 4 5 5 6 6 7 8 8 8
12 11 11 11 11 11 11 11 10 10 9 7 6 6 6 6 5 5 4 3 2 2 2 2 3 3 2 2 1 1 1 2 3 3 4 5 6 7 7 7 8 9 9
12 11 11 10 10 10 10 10 9 9 8 8 6 7 6 6 6 5 4 4 3 3 2 2 2 2 2 2 2 1 1 2 2 3 4 5 6 7 7 7 8 8 9
11 11 10 10 9 9 9 8 8 8 8 7 6 6 6 5 5 5 4 3 3 2 2 1 1 2 2 2 2 2 2 2 3 3 4 5 6 7 7 8 8 9 10
10 10 10 9 9 8 8 8 7 7 6 6 5 5 5 5 5 5 4 4 3 3 3 2 2 2 2 2 2 2 3 3 4 4 5 5 6 6 6 7 8 10 11
9 9 8 8 8 8 7 6 6 6 6 5 5 5 5 5 6 5 5 4 4 4 4 3 2 2 3 3 3 3 3 3 4 5 5 5 5 6 7 7 8 9 10
8 8 8 7 7 7 7 6 6 6 5 5 6 6 5 6 6 6 5 5 5 4 4 4 3 3 3 3 3 3 3 4 5 5 5 5 5 6 7 8 8 9 10
7 7 7 7 7 6 6 6 6 6 5 5 5 6 6 6 6 6 6 5 4 4 4 4 4 4 4 3 3 3 4 4 5 5 5 6 6 7 8 8 9 10 11
6 6 6 6 6 6 6 5 5 5 5 5 5 5 5 4 5 5 5 4 4 4 4 4 4 5 5 4 4 4 5 6 6 6 7 7 7 8 8 9 10 11 11
5 5 6 6 6 6 6 5 5 6 6 5 4 4 4 4 4 3 4 4 4 4 4 4 4 5 5 5 6 6 6 7 8 8 8 8 8 8 9 9 10 11 11
4 5 5 5 5 5 5 5 5 5 4 4 4 3 3 3 3 3 3 3 3 4 4 5 5 5 6 6 6 7 7 7 8 8 8 9 9 10 10 11 11 11 11
2 3 3 4 4 4 4 4 4 4 3 3 2 2 3 3 3 3 3 3 3 4 5 5 5 5 6 6 7 7 7 8 8 9 10 10 10 10 11 11 12 12 12
1 1 1 2 2 3 2 2 2 3 2 2 2 2 2 2 2 3 3 3 3 4 4 5 6 6 7 7 7 8 8 8 9 10 10 11 11 11 12 12 13 13 13

GEFSSE_500_meanwind_282.txt.gz
Wind_Speed
2 3 4 3 4 4 6 7 8 8 8 8 8 7 7 7 8 8 9 8 7 7 7 7 6 6 5 5 5 5 5 4 4 2 2 2 3 2 2 2 1 1 1
2 3 3 3 3 4 6 8 8 9 8 8 7 7 7 8 9 8 7 7 7 7 7 6 5 5 5 5 5 4 3 3 3 2 1 2 2 1 1 1 0 1 2
3 3 3 3 3 4 5 7 8 8 8 7 7 6 6 7 8 8 7 7 6 6 6 6 5 5 4 4 4 3 2 2 2 1 0 1 1 0 0 1 2 2 2
3 3 2 3 3 4 4 5 6 7 7 6 6 6 6 7 7 7 7 6 6 5 5 5 5 5 4 3 3 2 2 2 1 1 0 0 1 1 0 1 2 2 2
2 2 2 3 3 4 4 5 6 7 7 6 6 6 5 6 7 6 6 6 6 5 5 5 5 4 3 2 2 1 1 1 0 1 0 1 1 1 1 2 2 2 1
3 3 3 3 4 4 5 5 5 6 6 6 6 5 5 6 6 6 5 5 6 5 5 4 4 3 2 2 1 1 0 0 0 0 0 1 1 1 2 2 2 2 2
4 4 4 4 4 5 5 5 5 5 5 6 5 4 4 5 6 6 5 5 5 4 4 4 3 2 2 1 1 0 1 1 0 1 1 1 1 2 3 3 3 3 3
5 5 5 4 5 5 5 5 5 5 5 5 5 4 4 5 5 5 4 4 4 3 3 3 3 2 1 1 1 1 1 2 2 1 1 2 2 2 3 4 3 3 4
5 5 5 5 5 5 5 5 5 5 5 5 4 4 4 4 3 3 4 4 3 3 2 2 1 1 1 1 1 1 1 2 2 2 2 2 1 2 3 4 4 4 5
6 6 6 6 6 6 6 6 6 5 5 5 4 4 4 4 3 3 3 3 3 3 2 1 1 1 2 2 2 2 3 3 3 3 3 3 2 3 3 4 5 5 6
8 8 7 8 7 7 7 7 6 6 6 6 5 4 4 4 3 3 3 3 3 2 1 1 1 2 2 3 3 4 4 4 3 4 3 3 3 4 5 5 6 6 7
10 9 10 9 8 8 8 7 7 6 6 6 5 5 4 3 2 2 3 2 2 2 1 1 1 2 3 4 5 5 4 3 3 3 3 4 4 5 6 6 7 8 8
10 10 10 10 9 9 9 8 7 7 6 5 5 4 3 2 2 2 2 1 1 2 2 2 2 2 2 3 3 2 2 2 3 3 3 4 4 5 6 7 7 8 8
10 11 11 10 9 9 8 8 7 7 6 5 4 4 3 3 2 2 2 1 2 2 2 2 2 2 2 3 3 2 1 1 2 3 3 4 5 6 7 7 7 8 9
10 10 10 10 9 8 8 7 6 6 6 5 4 2 2 2 2 2 2 2 2 2 3 3 3 3 3 4 4 3 2 2 3 3 4 5 6 6 7 8 9 9 9
10 10 9 9 9 8 7 6 5 5 5 4 3 2 2 2 2 2 2 2 3 3 3 3 4 3 3 4 3 2 3 3 3 3 4 5 6 6 7 8 9 9 10
10 10 9 8 8 8 7 6 5 4 4 4 4 3 3 3 3 3 3 4 4 4 4 4 4 4 4 4 4 4 4 3 4 4 5 5 6 7 7 8 9 10 10
10 9 8 8 7 7 7 6 6 5 4 4 5 4 4 4 4 4 4 4 4 5 5 5 4 4 4 4 4 4 4 4 4 4 5 6 7 8 8 9 10 10 10
9 9 8 7 6 6 6 6 6 6 5 4 5 5 5 5 5 5 5 4 5 5 5 6 6 6 5 5 4 4 5 5 5 5 6 7 7 8 9 10 10 10 11
9 9 8 7 7 6 6 6 6 7 6 5 5 5 4 4 4 5 5 5 5 5 6 6 6 6 6 6 6 5 5 6 6 6 7 8 8 9 9 10 10 10 11
8 8 8 7 7 6 7 7 7 7 7 6 6 6 4 4 4 5 5 5 5 5 6 6 6 6 6 6 6 6 6 6 6 8 8 9 9 9 10 10 10 11 11
7 8 7 7 7 7 7 7 7 6 6 6 6 6 6 5 5 4 5 5 5 5 6 6 6 6 7 7 7 7 7 7 8 8 9 10 10 10 9 10 11 12 12
7 7 7 7 7 7 7 7 7 6 5 5 6 6 6 5 4 5 5 5 5 5 6 6 7 7 7 8 8 7 8 8 7 8 8 9 10 10 10 11 12 12 12
6 6 6 6 6 6 6 6 6 6 6 6 6 5 5 4 4 4 5 5 5 5 6 6 7 7 8 8 8 8 8 9 9 9 10 10 11 11 11 12 13 13 12
5 5 6 6 6 6 6 6 5 6 6 6 6 5 5 4 4 4 4 4 5 6 6 7 7 8 8 8 8 8 8 9 10 11 11 11 12 12 13 13 14 14 13
6 5 5 6 5 6 5 5 5 5 5 5 5 5 5 4 4 4 4 4 5 5 6 7 7 8 9 9 9 8 9 9 10 11 12 13 13 14 14 15 15 14 15

GEFSSE_500_meanwind_288.txt.gz
Wind_Speed
5 5 4 4 5 5 6 6 6 6 6 8 8 8 7 7 8 7 8 8 8 7 6 6 5 5 5 5 5 5 5 5 4 4 4 3 3 2 1 1 1 1 0
5 5 4 4 4 5 6 6 6 6 7 7 7 7 7 7 7 7 7 7 7 6 6 6 5 5 5 5 5 6 5 5 5 4 3 2 2 2 2 1 0 0 0
5 5 4 5 5 5 6 6 6 6 7 7 6 6 6 6 6 6 6 6 6 6 6 5 5 5 4 4 4 4 4 5 4 4 3 2 2 2 2 2 1 1 0
5 5 5 5 5 5 5 7 7 7 7 7 6 6 6 6 6 6 6 6 6 5 5 5 4 4 3 3 3 3 4 4 4 3 3 2 3 3 2 1 1 1 1
5 5 4 4 5 5 6 6 7 7 7 6 6 6 6 6 5 6 6 5 5 5 5 4 4 4 3 3 3 3 3 3 3 2 2 2 2 2 2 1 1 1 1
5 5 5 5 5 6 6 6 7 7 7 6 5 5 5 5 5 6 6 6 5 5 5 4 3 3 3 3 2 2 2 2 2 2 2 1 2 1 1 0 1 1 1
7 6 5 5 5 6 7 7 7 7 7 6 5 5 5 4 4 5 5 5 4 4 4 3 3 3 2 2 2 2 2 1 1 1 2 1 1 0 0 0 1 1 1
7 6 6 6 7 7 7 7 7 7 7 7 6 5 5 4 4 4 4 3 3 3 2 2 2 2 2 1 1 1 1 0 0 1 1 1 1 1 1 1 1 2 2
8 7 8 7 8 8 8 8 8 8 8 7 6 5 5 4 4 4 3 2 2 3 2 2 1 1 0 0 0 1 1 2 2 2 2 2 2 1 1 2 2 3 3
9 8 9 9 9 9 9 8 8 8 8 7 6 5 5 4 3 3 3 2 3 3 2 1 1 1 1 1 1 2 2 2 3 2 2 2 2 2 3 3 3 3 4
10 10 10 10 11 10 10 9 9 8 7 7 6 5 4 4 3 2 2 2 3 3 1 1 1 1 0 1 2 2 2 2 3 2 2 2 3 3 3 4 4 4 5
12 12 12 12 12 12 10 9 9 8 7 7 6 5 5 4 3 3 2 2 2 2 2 2 1 0 0 1 1 1 1 1 1 1 2 2 2 3 3 4 5 6 6
13 12 13 13 12 11 10 9 8 8 7 7 6 5 5 5 4 4 3 2 2 2 2 2 1 0 0 1 1 1 1 0 1 1 2 1 2 3 4 5 6 7 7
13 13 13 13 11 11 10 9 9 8 7 7 6 5 4 4 3 3 4 4 3 2 1 1 2 2 2 2 1 1 1 1 1 1 0 0 1 3 4 5 6 7 7
13 13 13 13 12 11 10 9 8 8 7 6 5 4 4 3 3 3 3 3 2 2 2 2 4 3 3 3 2 2 2 2 2 1 1 0 2 4 4 5 6 7 8
14 13 12 12 12 12 12 10 9 9 8 7 6 5 4 4 4 4 3 3 3 2 2 2 3 3 3 3 3 3 3 3 3 2 2 2 3 4 5 6 7 7 7
14 13 13 13 12 12 11 10 10 8 7 7 6 5 4 4 4 5 4 4 4 4 4 3 4 4 3 3 3 3 3 3 3 3 3 3 3 4 5 6 7 7 6
13 13 13 13 12 11 11 10 9 9 8 7 6 6 6 5 5 6 6 6 5 5 5 5 5 5 4 4 4 3 2 3 3 3 3 4 4 5 6 6 7 7 6
13 13 12 12 11 11 10 10 9 9 8 8 8 8 7 6 6 6 7 7 6 6 6 5 5 5 5 4 4 3 2 2 3 3 4 5 5 6 6 7 6 7 7
12 12 11 11 11 10 10 10 10 9 9 8 8 8 7 6 6 6 6 6 6 5 5 5 5 5 5 4 4 4 4 4 4 5 4 5 6 6 7 7 7 7 8
11 11 10 10 10 9 9 9 9 9 9 9 8 7 7 6 6 6 5 6 6 5 5 5 5 5 5 4 3 3 4 4 4 5 5 6 7 7 7 7 8 8 8
10 10 9 9 9 9 8 8 8 9 8 8 8 8 8 7 7 6 6 6 6 5 5 5 5 5 5 5 4 4 4 4 4 5 6 6 7 8 8 8 9 9 9
9 8 9 9 8 8 8 7 7 7 7 7 8 8 7 7 6 6 6 6 6 6 5 5 5 5 5 5 4 4 5 5 5 6 7 7 8 8 9 9 9 9 9
8 8 7 7 8 8 7 7 6 6 6 6 7 7 6 6 5 5 5 5 5 5 4 4 4 5 5 5 4 4 5 6 6 6 7 7 8 8 9 9 9 9 9
7 7 6 6 7 7 7 6 6 5 4 4 5 6 6 5 5 4 4 4 4 4 4 4 5 5 5 5 5 5 5 6 7 7 8 8 8 9 9 9 10 10 10
5 5 5 5 5 6 6 6 5 5 4 4 5 5 5 5 4 3 3 3 3 4 4 4 5 5 5 6 6 6 7 7 8 8 9 10 10 11 10 11 11 11 11

GEFSSE_500_meanwind_294.txt.gz
Wind_Speed
4 4 4 5 6 7 7 7 8 8 8 8 8 8 9 9 9 8 8 8 7 6 5 5 5 4 4 3 3 2 1 1 1 2 2 2 2 2 2 2 2 2 2
4 4 5 6 7 7 7 8 8 8 8 8 8 7 8 8 8 8 8 7 6 5 5 4 4 4 3 3 3 2 1 1 2 2 1 2 1 1 1 1 1 2 2
5 5 5 6 7 7 7 8 8 8 8 8 7 7 8 8 7 7 7 6 5 5 5 4 3 3 3 3 3 2 3 3 2 2 1 1 0 1 1 1 1 1 1
5 6 6 6 7 8 8 9 9 8 8 8 7 7 7 6 6 7 7 6 5 4 4 4 2 2 2 2 2 2 3 2 2 1 0 0 0 1 1 1 1 1 1
6 7 7 7 7 8 9 10 9 9 8 8 7 6 6 6 6 7 7 6 5 4 4 3 2 1 1 1 1 1 1 0 1 1 1 1 1 1 1 1 2 1 1
7 7 8 8 8 8 9 9 9 8 8 8 7 6 7 6 6 6 5 5 5 4 4 3 2 1 1 0 0 0 0 1 1 2 2 2 2 1 1 2 2 2 2
7 7 8 9 9 9 9 9 9 8 8 8 7 7 6 6 5 5 6 5 4 4 4 3 2 1 1 0 0 1 1 1 2 3 3 3 2 2 2 2 2 2 3
7 7 8 9 9 9 9 9 8 8 7 7 6 6 5 6 5 4 5 4 4 3 3 2 2 1 0 0 1 1 1 2 3 3 3 2 3 2 2 2 3 3 3
8 8 8 9 9 9 9 9 9 8 7 7 6 6 5 5 4 4 4 3 3 3 3 2 1 1 1 1 1 2 2 2 3 3 2 2 2 3 3 3 3 3 4
9 9 10 9 10 11 10 9 9 8 8 7 6 6 5 5 4 4 4 3 3 3 2 1 0 1 1 1 1 2 2 2 3 3 2 2 2 3 3 3 3 4 5
11 11 11 11 11 11 11 10 9 8 7 7 6 5 4 4 4 4 4 3 2 1 1 1 1 2 2 1 1 2 2 3 3 3 3 3 3 3 4 4 4 5 5
12 12 12 12 12 11 11 10 9 8 7 6 5 5 4 4 4 4 4 3 2 1 1 2 2 2 2 2 1 2 2 2 2 3 3 3 3 3 4 4 4 5 6
12 13 13 13 12 12 11 10 9 8 7 6 5 5 4 4 4 5 4 3 2 1 1 1 2 2 2 2 2 2 1 1 2 3 3 3 3 4 4 5 5 6 6
13 13 13 13 12 12 11 10 9 8 7 6 5 4 4 4 4 4 4 3 2 1 1 1 1 2 2 1 2 2 2 2 2 3 3 3 3 4 4 4 6 7 7
13 13 13 13 12 11 10 10 9 8 7 7 6 5 4 4 4 4 4 3 2 2 1 1 0 0 0 1 1 2 2 2 3 3 4 4 4 4 4 5 6 7 7
13 13 13 12 12 11 10 9 9 8 7 7 6 5 5 4 4 4 3 3 2 2 1 1 1 1 1 1 1 1 2 2 3 4 4 4 4 5 5 5 6 6 6
12 12 12 12 12 11 11 10 9 8 7 7 6 5 5 5 5 5 5 5 3 2 1 1 1 1 1 2 2 2 2 2 3 4 4 4 4 5 5 5 5 6 6
11 11 11 11 11 11 10 9 9 8 8 7 7 6 6 6 6 6 6 5 4 3 3 3 2 3 3 3 3 3 3 3 3 4 4 4 5 5 5 6 6 6 6
11 10 10 10 10 10 9 9 9 8 8 7 7 7 7 6 6 6 5 5 4 4 4 4 3 3 3 3 3 3 3 3 4 5 5 5 5 5 5 6 6 7 7
9 9 9 9 9 9 9 9 9 8 8 7 7 7 6 6 6 5 4 4 4 4 4 3 3 3 3 3 3 4 3 3 4 5 5 5 5 6 6 7 7 7 7
8 8 9 9 8 8 8 8 8 7 7 7 7 6 6 5 5 5 4 4 4 4 3 4 4 3 3 3 3 4 4 4 5 5 6 6 7 7 7 7 7 7 7
7 7 8 8 7 7 7 7 8 7 7 7 7 6 5 5 5 4 4 4 4 4 4 4 4 4 4 4 4 4 4 5 5 6 7 7 7 7 7 7 7 8 8
7 7 6 7 6 6 6 6 6 6 6 6 6 6 5 5 5 5 4 4 3 4 4 4 4 5 5 4 5 5 5 6 6 7 7 7 8 8 8 8 7 8 9
7 6 6 6 6 6 5 5 5 5 5 5 5 5 5 5 4 3 4 4 3 3 4 4 5 5 5 5 5 6 7 7 8 9 8 8 8 8 8 8 8 9 10
5 4 5 5 5 6 6 5 4 5 5 5 5 5 5 5 4 3 3 3 3 3 4 4 5 5 5 6 6 7 7 8 9 9 9 10 9 10 10 10 10 11 12
4 4 4 4 4 4 5 4 4 4 4 4 4 4 4 4 4 3 3 3 4 4 4 5 5 6 6 6 7 8 8 9 9 9 10 11 11 11 11 11 11 12 12

GEFSSE_500_meanwind_300.txt.gz
Wind_Speed
6 7 8 8 8 8 8 8 9 10 10 10 11 10 10 10 10 9 8 8 8 8 7 7 6 5 5 5 4 3 3 2 2 2 3 3 3 3 4 4 3 3 2
6 7 7 8 8 9 9 9 9 9 10 10 9 9 10 10 9 8 8 8 8 7 7 6 5 4 4 4 3 3 2 2 1 2 3 3 2 3 3 3 3 3 2
7 7 7 8 9 9 9 10 10 9 10 10 9 9 10 9 9 9 8 8 7 7 6 5 4 4 3 3 2 1 1 0 0 2 2 2 1 2 2 2 1 2 2
8 8 8 8 9 9 10 10 10 9 9 9 9 9 9 9 9 8 8 7 7 6 5 4 3 3 2 2 1 1 1 2 0 2 2 2 1 2 2 2 2 2 2
8 8 8 8 9 10 10 10 10 10 9 9 9 9 8 8 8 8 7 6 6 5 4 3 2 2 2 1 1 2 2 3 2 2 2 2 2 3 3 3 2 2 3
9 9 10 9 9 10 10 10 10 10 9 9 9 8 8 7 8 7 6 6 5 4 3 2 1 1 1 1 1 2 2 2 1 1 2 2 2 3 3 3 2 3 4
9 10 10 9 9 9 9 10 11 10 9 8 7 7 7 7 6 6 6 5 5 3 2 2 1 1 1 1 1 2 1 1 1 1 1 1 2 2 2 2 2 3 4
9 9 9 9 9 9 9 10 10 9 9 8 7 6 7 7 6 5 5 5 4 3 2 1 1 1 1 1 1 2 2 2 1 1 2 2 1 2 2 3 3 3 3
9 9 9 9 9 9 9 9 9 9 8 7 6 5 5 5 6 5 4 4 4 3 2 1 0 0 1 1 1 2 2 2 2 2 2 1 1 1 2 3 3 4 3
9 9 9 10 9 9 9 8 8 8 8 7 6 5 5 5 5 5 4 3 3 3 2 1 0 1 1 2 2 2 2 3 2 2 2 2 2 2 2 3 4 4 4
8 9 9 9 9 9 9 8 8 7 7 6 6 5 4 4 5 5 4 3 3 2 1 0 1 1 1 2 2 2 2 2 3 3 3 3 3 3 4 4 4 4 4
9 10 10 9 9 9 9 8 7 6 6 5 5 4 4 4 4 4 4 3 3 2 0 1 1 1 2 2 3 2 2 2 3 3 4 4 3 3 4 4 4 4 4
12 11 11 10 9 9 9 8 7 6 5 5 4 4 4 4 4 5 4 3 2 1 0 1 1 2 2 2 2 3 2 3 3 3 4 4 4 4 4 4 4 4 5
13 12 11 11 10 9 8 7 7 6 6 6 5 5 5 5 5 5 5 4 3 2 2 2 2 2 3 2 2 2 2 3 3 3 4 4 5 5 5 5 5 5 5
12 12 11 10 10 9 8 7 6 6 5 5 5 6 5 5 5 5 5 3 2 2 2 2 3 3 3 2 2 2 2 2 2 3 4 5 5 6 6 6 5 6 5
10 11 11 10 10 9 8 7 6 6 5 5 5 6 6 5 5 5 4 3 2 2 2 2 2 3 3 3 3 2 3 3 3 3 4 5 6 6 5 5 5 5 6
9 9 9 9 9 9 8 8 7 6 7 7 7 6 6 7 6 5 4 3 3 3 2 2 3 3 3 3 3 3 3 4 4 5 5 6 6 6 5 5 5 5 6
8 8 8 8 8 8 8 8 8 8 7 7 7 7 6 6 5 4 3 3 3 3 2 2 2 2 2 2 3 3 3 4 5 6 6 7 6 6 6 5 5 6 6
8 8 8 8 7 7 8 7 7 7 7 7 6 5 5 5 4 4 3 3 3 3 2 2 3 2 2 2 2 3 4 5 6 7 7 7 7 6 6 6 6 7 7
7 7 7 7 7 7 7 7 6 7 6 6 6 5 5 5 4 4 4 3 3 3 2 2 2 2 2 2 3 3 4 5 6 7 7 7 7 7 7 7 7 7 7
7 6 6 6 6 7 6 6 6 6 6 5 5 5 5 4 4 4 4 4 3 3 3 3 3 2 2 3 4 5 5 6 6 7 8 8 7 7 7 7 7 7 8
6 6 6 6 6 6 6 6 6 6 5 5 5 4 4 3 3 3 3 2 3 3 3 4 4 4 3 4 4 5 6 6 7 8 8 8 8 8 8 8 8 9 9
5 5 5 5 5 5 5 5 5 5 5 5 5 4 4 3 3 3 3 3 2 3 3 3 4 4 4 4 5 5 6 7 7 8 8 8 8 8 9 9 9 10 10
3 4 4 4 4 4 4 4 4 4 4 4 4 4 4 3 3 3 3 3 2 2 2 3 4 5 5 5 6 6 7 8 9 9 9 9 9 9 9 10 10 10 10
2 2 3 3 3 3 3 3 3 3 4 4 4 4 3 3 3 3 2 3 3 3 3 4 5 5 5 6 7 7 8 9 9 10 10 10 10 10 11 11 11 11 11
1 0 1 1 1 2 2 2 2 2 2 3 3 3 3 3 3 3 3 4 4 5 5 5 5 6 6 7 7 8 8 9 9 10 10 10 11 11 12 12 12 12 12

GEFSSE_500_meanwind_306.txt.gz
Wind_Speed
3 3 4 5 5 5 6 7 7 7 7 7 7 7 7 7 6 6 5 6 6 6 5 5 4 4 3 3 3 3 2 2 1 1 1 1 1 1 2 2 2 3 3
3 3 4 4 4 5 6 6 6 7 7 6 6 6 6 6 5 5 5 5 5 5 5 4 4 3 3 3 2 2 1 0 1 1 1 2 2 2 2 2 2 2 3
3 3 3 3 4 5 5 6 6 6 6 6 6 6 5 5 5 6 6 5 5 5 4 4 3 3 2 3 2 2 2 3 2 2 2 2 2 3 2 2 2 2 2
3 3 4 3 4 5 5 5 5 5 5 5 5 6 6 5 6 6 6 5 5 4 4 3 3 2 2 2 3 3 3 4 3 2 2 2 3 4 3 3 2 3 2
3 4 4 4 4 5 6 5 5 5 5 5 5 5 6 5 5 5 5 5 4 3 3 3 3 2 2 2 3 3 3 4 3 3 3 3 2 2 3 2 2 3 3
3 3 4 4 4 5 5 5 5 5 4 4 4 5 5 5 5 4 5 4 4 3 3 2 2 2 2 3 3 3 3 4 5 4 3 2 1 2 2 3 2 3 4
3 4 4 4 5 5 5 4 5 4 4 4 4 4 4 4 4 4 4 4 4 3 3 3 3 2 3 3 4 4 5 5 5 5 4 2 2 3 3 3 3 3 4
4 5 5 5 5 5 4 4 4 4 4 4 3 3 4 3 3 4 4 3 3 3 3 3 3 3 3 4 4 5 6 6 6 5 5 3 3 3 3 3 3 4 5
5 4 5 5 4 3 3 3 3 3 3 3 4 3 3 3 3 3 3 3 4 4 4 4 3 3 3 4 4 5 6 7 6 5 4 3 3 3 3 4 4 4 5
4 4 5 5 4 3 3 3 2 3 3 3 3 3 2 2 2 3 3 2 3 3 3 3 3 3 4 4 4 5 6 6 5 5 4 4 3 3 4 4 4 5 4
4 5 5 4 4 4 3 3 3 2 2 2 2 2 2 2 2 2 2 2 2 2 3 3 3 4 4 4 4 5 5 5 5 4 4 4 3 4 4 4 5 5 5
6 5 5 4 4 3 3 4 3 3 2 2 2 2 2 1 1 2 3 3 3 3 3 3 3 4 4 4 4 5 5 5 5 4 5 4 4 4 4 4 5 5 5
6 6 5 5 4 4 4 4 4 3 2 2 2 2 2 2 2 2 3 3 3 3 3 3 4 4 5 4 4 5 5 6 6 6 6 5 4 4 4 5 5 5 6
7 7 6 5 5 4 4 4 3 3 3 2 2 2 2 2 3 3 3 3 3 3 3 4 4 5 5 5 6 6 6 7 6 6 5 6 6 5 5 5 6 6 6
8 7 7 6 5 4 4 4 3 3 3 2 2 3 3 3 3 3 3 4 4 4 4 4 4 5 6 6 6 7 7 7 7 6 6 7 7 7 7 7 7 7 6
8 7 7 6 6 5 4 4 5 4 4 3 3 3 4 3 3 3 3 4 4 4 4 4 4 5 6 6 6 6 7 7 8 8 7 7 8 8 8 8 8 8 7
7 7 7 7 6 6 6 6 6 6 5 4 4 4 4 4 4 4 3 4 4 5 4 5 5 5 5 6 6 6 7 8 8 9 8 8 8 8 9 9 8 8 8
7 7 6 7 7 6 6 6 6 6 5 5 5 4 4 4 4 4 3 4 4 4 4 5 5 5 6 6 6 6 7 7 8 9 9 9 9 9 9 9 9 9 9
7 6 6 6 6 6 6 6 6 6 6 6 5 4 4 4 4 4 4 4 4 4 4 4 4 5 6 6 6 7 7 7 8 8 10 10 10 10 10 10 10 10 9
7 6 6 6 6 6 6 6 6 7 7 6 5 5 4 4 4 4 5 5 4 5 4 4 4 5 6 6 6 7 8 8 8 9 10 10 11 11 11 11 10 10 10
6 6 6 6 5 5 6 5 6 6 6 6 6 5 4 5 4 4 4 4 4 5 5 4 5 6 6 6 7 8 8 8 9 9 9 10 11 11 11 11 11 10 10
5 5 5 5 5 5 5 5 5 5 5 5 5 5 5 5 4 4 4 4 4 5 5 5 6 6 7 7 7 8 8 9 10 10 10 11 11 11 11 12 11 11 10
5 5 5 5 5 4 4 4 4 4 5 5 5 5 5 6 6 6 6 6 5 5 5 6 7 7 7 8 8 9 10 10 10 11 11 11 11 11 11 12 12 12 11
4 4 4 4 4 3 4 4 4 4 5 5 5 5 5 6 6 6 6 6 6 6 6 7 8 8 8 9 9 10 10 11 11 11 12 12 11 12 12 12 13 13 12
4 4 5 4 4 3 3 4 5 5 5 5 5 5 5 5 6 6 6 6 6 7 7 7 8 8 9 9 10 10 11 12 12 13 13 13 13 13 13 13 13 13 13
4 4 5 5 4 3 4 4 5 5 5 5 5 5 6 6 6 6 5 6 6 6 7 7 8 8 9 9 10 11 11 12 12 13 14 14 14 14 13 13 13 13 13

GEFSSE_500_meanwind_312.txt.gz
Wind_Speed
4 5 4 3 4 4 4 4 5 6 6 6 6 6 6 5 4 5 6 6 6 5 5 4 3 2 2 2 2 3 3 3 3 3 3 3 3 2 2 2 2 2 2
3 4 3 3 3 3 4 5 5 6 6 6 5 5 5 4 4 4 5 4 5 5 4 4 3 2 2 2 2 2 3 3 2 2 2 2 1 1 1 2 3 3 3
3 3 2 4 4 3 4 5 5 5 5 5 4 4 5 4 3 4 4 4 4 4 3 3 3 2 2 2 1 1 1 1 1 0 1 1 1 2 2 2 3 4 3
3 3 2 3 3 3 3 4 4 4 4 4 4 4 4 4 3 3 3 3 4 4 3 3 3 2 2 2 2 2 3 1 1 1 1 2 2 2 2 2 3 3 3
4 3 4 4 4 4 4 5 5 5 4 4 3 3 4 4 3 3 3 3 4 4 3 3 2 2 2 2 2 3 3 2 2 2 3 3 2 2 2 2 3 3 3
4 4 4 4 4 4 4 5 5 5 5 4 4 4 4 4 4 3 3 4 4 4 3 4 3 2 2 2 2 2 2 2 3 3 1 2 2 2 2 2 3 3 3
6 5 4 5 5 5 5 5 5 5 5 4 4 4 4 4 4 4 3 4 4 4 3 3 3 2 2 3 3 3 3 3 3 3 2 0 1 2 2 2 3 4 3
6 5 4 5 5 6 6 5 5 5 4 4 4 4 4 4 3 3 3 4 4 4 4 3 3 3 3 3 4 4 4 4 4 3 3 2 1 1 1 1 2 2 2
7 6 5 5 6 6 6 5 5 4 4 4 4 4 4 4 3 2 4 4 4 4 4 4 4 3 3 3 4 4 4 4 4 4 3 2 1 1 1 1 1 1 2
8 8 7 7 7 7 6 6 5 5 4 4 4 4 4 4 4 3 4 4 4 4 4 4 4 4 4 3 3 3 4 4 4 4 3 2 1 0 0 1 1 1 2
8 8 8 8 7 7 7 6 6 5 5 5 4 4 3 4 4 4 4 4 4 3 4 4 3 4 4 4 3 3 4 4 4 4 3 3 3 2 2 2 2 2 2
8 8 8 8 7 7 7 7 6 5 5 5 4 4 4 4 5 5 5 5 5 4 3 4 4 4 4 4 4 4 4 4 5 4 4 3 3 3 3 3 3 3 3
10 9 9 8 7 7 7 7 7 6 6 5 5 4 4 4 5 5 5 5 5 4 4 4 4 4 4 4 4 4 4 5 5 5 4 4 4 4 4 4 4 4 4
11 10 9 9 8 8 7 6 6 6 6 5 5 5 5 5 5 5 5 5 5 5 5 5 5 4 4 4 4 4 4 5 5 5 5 5 5 5 4 4 4 4 4
12 11 11 10 10 8 7 7 6 6 6 5 5 6 5 6 5 5 5 6 5 5 5 5 5 5 5 5 4 4 4 5 4 5 4 5 6 5 4 4 4 5 5
12 12 11 10 10 10 9 8 7 6 6 6 6 6 6 6 5 5 5 5 5 5 6 6 5 5 5 4 4 4 5 5 5 4 4 5 6 6 6 5 5 5 5
11 11 11 11 11 11 10 10 8 7 7 7 7 7 6 6 5 5 5 5 4 4 5 5 5 5 5 4 4 4 4 5 5 5 6 6 7 7 7 6 5 5 5
11 11 11 11 11 11 10 10 9 8 7 8 8 7 6 6 5 4 4 4 4 3 4 4 5 4 5 5 5 5 5 5 6 6 6 6 7 7 7 7 6 5 5
11 11 11 11 11 11 10 9 9 9 8 8 8 7 7 6 5 5 4 4 4 4 4 4 4 4 4 5 5 6 5 6 6 6 6 6 7 7 7 7 7 6 6
10 10 10 10 10 10 10 9 9 9 8 8 8 7 7 6 5 5 5 5 4 4 4 4 4 4 4 5 5 6 6 7 7 7 7 7 7 8 8 8 8 7 7
9 8 9 9 9 9 9 9 8 8 8 7 7 6 6 5 5 5 5 5 5 5 5 5 5 5 5 6 6 6 7 7 7 7 7 7 8 8 9 8 8 8 8
8 7 7 8 7 7 8 8 8 8 8 7 6 6 6 5 5 5 5 5 5 4 5 5 5 5 6 7 7 7 6 6 7 7 7 8 9 9 10 9 9 8 8
7 7 7 7 7 7 7 8 8 8 7 6 7 7 6 6 5 4 4 4 4 5 5 5 4 6 6 6 6 7 8 8 7 8 9 9 9 9 9 10 10 9 9
6 6 6 6 6 6 6 7 6 6 6 6 6 6 5 5 5 4 4 4 4 4 4 4 4 5 6 6 6 7 8 9 9 8 9 9 9 9 9 10 10 10 10
5 5 5 6 6 5 5 5 4 4 4 5 5 5 5 5 4 4 4 4 4 4 4 4 4 5 5 6 6 7 7 8 8 9 9 9 9 9 9 9 9 10 10
5 4 5 5 5 5 4 4 4 3 3 3 4 4 4 4 4 4 4 3 4 5 4 4 4 5 6 6 7 7 7 8 8 9 9 9 9 9 9 10 9 10 10

GEFSSE_500_meanwind_318.txt.gz
Wind_Speed
5 5 5 5 5 6 6 7 7 6 6 7 7 6 5 4 4 4 4 4 3 3 2 3 3 3 3 3 4 4 3 1 1 2 3 4 4 4 5 6 6 6 5
5 4 4 5 6 6 7 7 7 7 7 7 7 6 5 4 4 4 4 3 3 2 2 3 3 3 3 3 4 4 2 1 1 1 2 3 4 5 6 6 6 5 5
4 4 4 5 6 6 6 7 8 8 7 7 7 5 4 4 4 3 3 3 2 2 2 2 2 3 3 3 3 3 2 2 1 0 2 3 5 5 6 6 6 5 5
4 4 4 5 6 7 7 7 7 8 7 7 6 5 5 5 4 3 3 3 2 1 1 2 2 2 3 3 3 3 2 2 1 2 2 3 5 5 5 5 4 4 4
4 4 5 6 6 7 7 7 7 7 7 6 6 6 5 5 4 3 3 3 2 2 2 2 2 3 3 3 3 3 2 1 1 2 2 2 3 4 4 4 4 4 5
5 5 6 6 7 7 7 7 7 7 6 6 6 6 5 5 4 3 3 4 3 2 2 2 3 3 3 3 3 2 2 1 1 1 2 2 3 4 4 4 4 4 5
7 7 7 7 7 7 6 7 7 7 6 6 6 6 5 5 5 5 4 4 3 2 3 3 3 3 3 3 3 3 3 2 2 2 3 3 3 4 5 5 5 5 5
8 7 7 7 7 7 7 7 7 7 6 6 6 6 5 5 5 4 4 4 3 3 3 3 3 3 4 4 4 4 4 4 3 3 3 3 3 4 4 4 4 5 5
8 8 8 8 8 7 7 7 6 7 7 6 6 6 5 5 5 4 5 5 4 3 3 3 3 3 3 3 4 3 4 4 4 4 4 4 3 3 3 4 4 4 5
9 8 8 8 8 7 7 7 6 7 7 6 6 6 6 5 4 4 5 4 4 4 3 3 3 3 3 3 3 3 4 5 4 4 4 4 3 3 3 4 3 4 4
9 8 8 8 8 7 7 7 7 7 7 7 6 6 5 5 5 5 5 5 5 5 4 4 4 3 3 3 3 4 4 4 4 4 4 4 3 3 2 2 3 3 3
9 9 8 8 8 7 7 7 7 7 7 7 6 6 6 6 5 5 5 5 5 5 5 5 4 4 4 4 4 4 4 4 5 4 5 4 4 3 2 2 3 3 3
10 10 9 8 8 8 8 8 7 7 7 6 7 6 6 6 6 5 5 5 5 5 5 5 5 5 5 5 5 5 5 5 6 5 5 5 5 4 3 3 3 3 3
10 10 9 9 8 8 8 8 7 7 6 7 6 6 6 6 6 6 5 5 5 4 4 5 6 5 5 5 5 5 5 6 6 5 5 6 6 4 4 4 4 3 3
11 10 9 9 9 8 8 8 7 7 7 7 6 6 6 6 5 5 4 4 4 4 4 5 5 5 5 5 5 5 5 5 6 5 5 6 6 5 5 5 5 5 4
10 10 9 9 9 9 9 9 8 7 7 7 7 6 6 6 5 4 4 4 4 3 3 4 4 4 5 5 5 5 5 5 5 5 6 6 6 6 6 6 6 6 5
10 10 9 9 9 9 9 9 8 8 8 8 7 7 6 6 5 4 4 4 3 3 3 3 4 4 5 5 5 5 5 5 5 5 6 6 6 6 6 6 5 5 5
10 10 10 9 9 9 9 9 9 8 8 8 7 7 6 5 5 4 4 4 3 3 3 3 4 4 5 5 5 5 6 5 5 5 6 6 7 7 7 7 7 7 6
9 9 9 9 9 8 8 8 8 8 8 7 6 6 6 5 4 4 4 3 3 3 3 3 4 4 5 6 6 6 6 5 6 7 7 7 7 7 8 8 7 7 8
7 8 8 8 8 8 8 8 7 7 7 7 6 5 5 4 4 4 3 3 3 3 3 3 4 4 5 6 6 6 6 7 7 7 7 7 7 7 8 8 7 8 8
6 6 7 7 7 7 7 7 7 7 6 6 5 5 4 4 3 2 3 3 3 4 3 2 3 3 4 4 5 6 7 7 8 8 8 7 8 8 8 8 8 8 8
5 5 5 6 6 5 5 5 6 6 6 5 5 4 4 3 2 1 2 2 2 2 2 2 2 3 3 4 5 6 7 8 8 9 8 8 8 8 9 9 9 9 9
6 5 4 4 4 4 4 4 4 5 5 4 4 3 2 1 1 2 2 2 1 1 2 2 3 3 3 4 5 6 7 8 8 8 8 8 8 9 9 10 10 10 10
6 5 5 4 4 4 3 3 3 3 3 3 2 2 2 1 1 1 2 2 2 2 2 2 3 4 4 5 6 6 7 7 8 7 8 8 9 9 10 10 10 10 10
5 4 4 4 3 3 3 3 2 1 1 1 1 0 0 1 1 2 2 3 3 3 3 3 4 5 6 6 6 6 7 7 7 7 8 9 9 10 10 10 11 11 11
5 4 3 3 3 2 2 1 1 1 1 2 2 2 2 2 2 3 3 3 4 4 4 5 5 6 6 6 6 7 7 8 8 9 9 9 10 11 11 11 11 11 11

GEFSSE_500_meanwind_324.txt.gz
Wind_Speed
6 6 8 8 8 8 8 7 8 8 8 8 7 6 7 6 5 5 5 5 4 4 4 4 4 3 2 2 2 1 1 3 4 4 4 4 5 5 6 6 6 6 7
6 6 7 8 8 7 7 7 8 8 8 7 7 7 6 6 5 6 5 5 4 4 4 4 3 3 2 2 2 2 1 1 2 3 4 4 5 5 6 6 6 6 6
6 7 7 8 8 8 8 8 8 9 9 8 7 7 6 6 5 5 5 5 5 4 4 3 3 3 3 2 2 2 1 1 1 2 3 3 4 4 5 5 6 6 6
7 7 7 8 8 8 8 8 8 9 9 8 7 6 6 6 5 5 5 4 4 3 2 2 3 3 3 3 3 2 2 2 2 1 1 2 3 4 5 5 6 7 7
8 8 8 8 8 8 8 8 9 9 8 7 7 7 6 6 6 6 5 4 3 3 2 2 2 3 2 2 2 3 2 2 2 1 1 2 3 4 4 5 6 6 7
8 9 9 9 9 8 8 8 8 8 8 7 7 7 7 7 7 6 5 4 4 3 2 1 2 3 3 2 2 2 2 2 1 1 2 2 2 3 4 5 6 6 5
9 9 9 9 8 8 8 8 8 8 8 7 7 7 7 7 6 6 5 4 4 3 2 2 2 3 2 2 3 3 3 3 2 2 2 2 2 2 3 4 5 5 6
9 8 8 8 8 8 8 8 7 8 8 7 7 7 7 7 7 6 5 5 5 4 3 4 3 3 3 3 3 3 3 3 3 3 3 2 2 2 2 3 4 4 4
8 8 8 8 8 8 8 8 7 7 7 7 6 7 7 7 7 6 6 6 5 5 4 4 3 3 3 3 3 3 3 3 3 3 3 3 3 3 3 3 4 4 4
8 7 8 8 8 8 8 8 8 7 7 6 6 6 7 7 6 6 6 5 5 5 4 4 3 4 4 3 3 3 4 4 4 4 3 2 2 3 3 4 4 4 5
7 7 7 8 8 8 8 8 7 7 7 6 6 6 6 6 6 6 5 5 6 5 4 4 4 4 4 4 4 4 4 5 5 5 4 3 3 3 3 4 4 4 4
7 7 6 7 8 7 8 8 7 7 6 6 6 6 6 6 6 5 5 5 5 5 4 4 4 4 4 4 5 5 5 5 5 5 4 4 4 3 3 3 3 4 4
7 7 6 7 7 7 7 7 7 6 7 7 6 6 6 6 5 5 5 5 5 4 4 4 5 5 5 5 5 5 5 6 6 6 6 5 5 4 2 2 3 4 5
8 7 6 6 7 7 7 7 7 7 6 6 6 6 6 6 5 5 5 5 5 4 4 4 4 5 5 6 5 5 5 6 6 7 7 6 6 5 3 3 4 4 4
7 6 6 6 6 6 6 7 6 7 6 6 6 5 5 5 4 4 4 4 4 4 4 4 4 4 5 5 5 5 5 6 6 6 6 6 6 6 5 4 4 4 4
7 6 6 5 6 6 6 6 6 7 6 6 6 5 5 4 4 4 4 3 3 3 3 4 4 4 5 5 5 6 6 6 6 6 6 6 7 7 7 6 5 5 5
6 6 6 5 6 6 6 6 6 6 7 6 6 5 5 4 3 3 3 3 3 3 4 4 4 4 5 5 6 6 7 6 6 6 6 6 6 6 7 7 6 5 5
6 5 5 5 5 5 5 6 6 6 6 6 5 5 4 3 3 2 2 2 2 2 3 3 4 4 4 5 6 7 8 7 7 7 6 6 7 7 7 7 7 6 6
5 5 5 5 5 5 6 6 5 6 5 6 5 4 3 3 2 2 2 2 2 2 3 3 3 3 4 5 6 7 7 7 7 7 7 7 7 7 7 8 8 8 7
5 5 5 4 4 4 5 5 5 5 5 5 4 4 3 2 2 2 2 2 2 3 3 3 2 3 4 4 5 6 7 7 7 8 7 7 7 7 8 8 9 9 8
4 4 4 3 3 3 3 3 3 4 4 4 4 3 2 2 2 2 2 2 2 3 3 3 3 3 3 4 5 6 6 7 7 7 7 8 8 8 8 9 9 9 9
4 4 4 3 2 2 2 3 3 3 3 3 3 2 2 1 1 1 1 2 2 3 3 3 3 4 4 5 5 6 7 7 7 8 8 8 8 8 9 9 9 9 9
4 3 3 3 2 1 1 1 2 2 2 2 2 2 2 2 1 1 2 2 2 3 3 4 4 4 5 5 5 6 7 8 8 8 8 8 8 8 9 9 9 9 10
4 3 2 2 1 1 1 1 1 1 1 1 1 2 2 2 2 3 3 4 4 4 4 5 5 5 5 5 6 7 8 8 8 9 8 8 8 9 9 9 9 9 10
5 4 3 3 2 1 0 0 1 1 1 1 2 3 4 4 4 5 5 5 5 5 5 6 5 6 6 6 7 7 8 7 8 9 9 9 9 9 9 10 10 10 10
6 4 4 3 3 2 2 1 2 2 2 3 3 4 5 5 5 6 7 7 7 7 6 7 7 7 7 7 7 8 8 8 9 10 10 10 10 10 10 10 11 11 11